Location: Bun Machan
(52.1403°N, 7.3744°W)
Time: 18:01:06
(UTC+00:00)

Meteor 1-13 Rocket - Pass Details

Date: 14 July 2020
Orbit: 830 x 913 km, 81.3° (Epoch: 13 August)

Event Time Altitude Azimuth Distance (km) Brightness Sun altitude
Rises 02:46:36 0° 345° (NNW) 3,506 8.1 -10.9°
Reaches altitude 10° 02:49:06 10° 342° (NNW) 2,550 7.3 -10.7°
Maximum altitude 02:54:48 64° 263° (W) 961 4.3 -10.2°
Drops below altitude 10° 03:00:21 10° 183° (S) 2,476 6.1 -9.8°
Enters shadow 03:00:59 - 182° (S) 2,713 6.3 -9.7°
